[[{"header":{"parameterUnit":"m.s-1","parameterCategory":1,"la1":30.2991,"la2":30.254,"lo1":-89.0895,"lo2":-89.0444,"dy":0.0017,"dx":0.0017,"nx":28,"ny":28,"refTime":"2024-06-01T03:00:00:Z","depth":0,"parameterNumber":2,"parameterNumberName":"U-component_of_WINDS"},"data":[0,0,0,0,0,0,0,0,0,0,0,0,0,0,0,0,0,0,0,0,0,0,0,0,0,0,0,0,0,0,0,0,0,0,0,0,0,0,0,0,0,0,0,0,0,0,0,0,0,0,0,0,0,0,0,0,0,0,2.4752,2.4753,0,2.4863,2.4865,2.4866,2.4861,2.4859,2.4858,2.4856,2.4972,2.4976,2.4981,0,0,0,0,0,0,0,0,0,0,0,0,0,2.4534,2.4538,2.4752,2.4753,2.4754,2.4863,2.4865,2.4866,2.4861,2.4859,2.4857,2.4855,2.497,2.4976,2.4981,0,0,0,0,0,0,0,0,0,0,0,0,0,2.4635,2.4539,2.4751,2.4765,2.4767,2.4863,2.4865,2.4867,2.4861,2.4859,2.4857,2.4854,2.4969,2.4975,2.4982,2.5072,0,0,2.5003,2.5006,0,0,0,0,0,0,0,0,2.4629,2.4643,2.4761,2.4764,2.4767,2.4846,2.483,2.4936,2.4862,2.4826,2.4856,2.4853,2.4932,2.4942,2.4968,2.5077,2.5082,2.5003,2.5008,2.5011,2.5013,0,0,0,0,0,0,0,2.4622,2.4638,2.4796,2.4763,2.4767,2.4765,2.4777,2.485,2.4891,2.4829,2.4829,2.4842,2.4933,2.4961,2.4971,2.5084,2.5003,2.5009,2.5014,2.5016,2.5272,2.5275,0,0,0,0,0,0,2.4612,2.4633,2.4792,2.4799,2.4691,2.4771,2.4784,2.4823,2.489,2.4898,2.4844,2.4841,2.4951,2.4963,2.4975,2.5083,2.5011,2.5017,2.5021,2.527,2.5273,2.5276,0,0,0,0,0,0,2.4608,2.4627,2.4788,2.4716,2.4736,2.4778,2.4821,2.4826,2.4855,2.4901,2.4909,2.4865,2.4949,2.4965,2.5047,2.5087,2.502,2.5026,2.5266,2.5271,2.5274,2.5303,0,0,0,0,0,0,2.4602,2.4625,2.466,2.4717,2.474,2.4859,2.4823,2.483,2.4866,2.4864,2.4923,2.4931,2.4949,2.5037,2.5054,2.5096,2.5032,2.5263,2.5268,2.5273,2.5298,2.5307,2.5315,0,0,0,0,0,2.4594,2.4664,2.4661,2.4681,2.4784,2.4861,2.4874,2.4893,2.4869,2.4904,2.4934,2.4929,2.508,2.5046,2.5065,2.5109,2.526,2.5267,2.5273,2.5295,2.5305,2.5314,0,0,0,0,0,0,2.4611,2.4671,2.467,2.476,2.4805,2.486,2.4905,2.4904,2.4957,2.4953,2.4974,2.4987,2.507,2.5098,2.5058,2.5199,2.5168,2.5178,2.5178,2.5188,2.5196,2.5187,2.5037,0,0,0,0,0,2.4625,2.4682,2.4732,2.4807,2.483,2.4863,2.4898,2.4908,2.4956,2.4975,2.5011,2.5058,2.5116,2.5154,2.521,2.5302,2.5315,2.5342,2.535,2.5357,2.5365,2.5415,2.5428,2.5296,2.5296,2.5295,0,0,2.4655,2.4695,2.473,2.4811,2.4848,2.4906,2.488,2.4943,2.4986,2.4985,2.5064,2.5093,2.5146,2.5234,2.5274,2.526,2.5404,2.5365,2.5369,2.5374,2.5423,2.5435,2.5446,2.53,2.5299,2.5298,0,0,2.4739,2.4775,2.4841,2.4878,2.4933,2.4955,2.4971,2.5026,2.5044,2.5124,2.5124,2.5176,2.5276,2.5314,2.5347,2.5445,2.5442,2.5463,2.5505,2.5554,2.5564,2.5573,2.5607,2.562,2.5471,2.5471,2.5471,0,2.4769,2.4857,2.4875,2.4939,2.4974,2.4975,2.5042,2.5077,2.5148,2.5172,2.5155,2.5279,2.5316,2.5412,2.5435,2.5462,2.548,2.5456,2.5561,2.5571,2.558,2.5612,2.5625,2.5473,2.5473,2.5473,2.5472,0,2.4891,2.4952,2.4999,2.5066,2.5107,2.5172,2.52,2.5239,2.5246,2.527,2.5351,2.5395,2.5459,2.5483,2.5491,2.558,2.5569,2.5556,2.5525,2.5594,2.5625,2.5638,2.5476,2.5475,2.5475,2.5474,0,0,2.4988,2.5065,2.5082,2.5112,2.5173,2.522,2.5285,2.5348,2.5381,2.543,2.5484,2.5568,2.5556,2.5593,2.5605,2.5648,2.5721,2.563,2.5631,2.5644,2.5822,2.583,2.5844,2.572,2.5722,2.5724,2.5817,0,2.5078,2.5192,2.5211,2.5311,2.5367,2.5369,2.5425,2.5468,2.5492,2.5543,2.557,2.5629,2.5609,2.5631,2.5674,2.5703,2.5757,2.5697,2.577,2.5773,2.5756,2.5861,2.587,2.5955,2.5829,2.5831,2.5833,0,2.5198,2.5249,2.5355,2.5407,2.5432,2.5482,2.554,2.5589,2.5638,2.5653,2.5693,2.57,2.5767,2.5733,2.5826,2.5784,2.5816,2.5835,2.5838,2.5845,2.5806,2.587,2.5983,2.5995,2.5852,2.5851,2.5849,0,2.5257,2.5352,2.5428,2.5454,2.5517,2.5552,2.5581,2.5627,2.5663,2.5715,2.5738,2.5797,2.5829,2.5874,2.5896,2.587,2.5987,2.5955,2.6,2.6,2.6024,2.6022,2.6143,2.6046,2.6046,2.6046,2.6046,0,2.5354,2.5418,2.5455,2.5501,2.5574,2.5594,2.5665,2.5692,2.5734,2.5785,2.579,2.5839,2.5866,2.5918,2.5936,2.6009,2.6024,2.6037,2.6041,2.6036,2.6034,2.6056,2.605,2.6049,2.6048,2.6048,2.6047,0,2.5432,2.5459,2.5541,2.5594,2.5609,2.566,2.5705,2.575,2.5774,2.5839,2.5855,2.5892,2.5954,2.5981,2.6057,2.6069,2.6153,2.6153,2.6136,2.6137,2.618,2.6175,2.6319,2.6338,2.6229,2.623,2.6231,0,2.5492,2.5541,2.5599,2.5634,2.5663,2.5719,2.5756,2.5778,2.5816,2.5875,2.5913,2.5975,2.6025,2.6124,2.6158,2.6216,2.6217,2.6263,2.6226,2.6219,2.6216,2.6213,2.6217,2.627,2.6271,2.6272,2.6272,0,2.5594,2.5605,2.5658,2.5716,2.5759,2.5806,2.5851,2.5879,2.5908,2.5951,2.6014,2.6053,2.613,2.6191,2.6251,2.628,2.6281,2.6284,2.6297,2.6292,2.628,2.6286,2.6153,2.628,2.628,2.6279,2.6279,2.6278,2.5664,2.5708,2.5756,2.5814,2.5851,2.5893,2.5937,2.5966,2.6019,2.6083,2.6093,2.616,2.6208,2.6288,2.632,2.6373,2.6361,2.6381,2.6386,2.639,2.6392,2.6272,2.6384,2.6384,2.6383,2.6383,2.6383,0,2.5766,2.5797,2.5851,2.5914,2.596,2.5956,2.6006,2.6045,2.6103,2.6148,2.6197,2.6269,2.6328,2.6366,2.6426,2.6461,2.6463,2.6476,2.6473,2.6479,2.6399,2.6381,2.6473,2.6473,2.6473,2.6473,2.6473,2.6473,2.5825,2.5898,2.5915,2.6006,2.6037,2.6102,2.6131,2.6169,2.6205,2.6285,2.6333,2.6358,2.64,2.6463,2.6517,2.6526,2.6548,2.6561,2.657,2.6495,2.6485,2.6476,2.6459,2.6566,2.6566,2.6646,2.6647,2.6647]},{"header":{"parameterUnit":"m.s-1","parameterCategory":1,"la1":30.2991,"la2":30.254,"lo1":-89.0895,"lo2":-89.0444,"dy":0.0017,"dx":0.0017,"nx":28,"ny":28,"refTime":"2024-06-01T03:00:00:Z","depth":0,"parameterNumber":3,"parameterNumberName":"V-component_of_WINDS"},"data":[0,0,0,0,0,0,0,0,0,0,0,0,0,0,0,0,0,0,0,0,0,0,0,0,0,0,0,0,0,0,0,0,0,0,0,0,0,0,0,0,0,0,0,0,0,0,0,0,0,0,0,0,0,0,0,0,0,0,6.4274,6.4274,0,6.424,6.424,6.4239,6.4152,6.415,6.4149,6.4147,6.4114,6.4115,6.4116,0,0,0,0,0,0,0,0,0,0,0,0,0,6.4267,6.4268,6.4274,6.4274,6.4273,6.424,6.424,6.4239,6.4153,6.415,6.4148,6.4146,6.4114,6.4115,6.4116,0,0,0,0,0,0,0,0,0,0,0,0,0,6.4255,6.4268,6.4274,6.4226,6.4221,6.424,6.424,6.4239,6.4153,6.415,6.4147,6.4145,6.4114,6.4115,6.4116,6.418,0,0,6.412,6.4121,0,0,0,0,0,0,0,0,6.4256,6.4256,6.4233,6.4229,6.4224,6.4197,6.4225,6.4219,6.4154,6.4179,6.4147,6.4144,6.4144,6.4143,6.4143,6.4178,6.4177,6.412,6.4121,6.4122,6.4122,0,0,0,0,0,0,0,6.4257,6.4257,6.4261,6.4233,6.4228,6.4207,6.4202,6.4224,6.4178,6.4177,6.417,6.4167,6.4141,6.4142,6.4141,6.4177,6.412,6.4122,6.4122,6.4123,6.4264,6.4267,0,0,0,0,0,0,6.4264,6.4258,6.4262,6.426,6.4233,6.4209,6.4204,6.4209,6.4177,6.417,6.417,6.4163,6.4141,6.414,6.414,6.4213,6.4122,6.4123,6.4124,6.4261,6.4264,6.4268,0,0,0,0,0,0,6.4265,6.4266,6.4263,6.4257,6.4255,6.4212,6.4219,6.421,6.421,6.4172,6.4164,6.4178,6.4139,6.4138,6.4171,6.421,6.4124,6.4125,6.4257,6.4262,6.4266,6.4359,0,0,0,0,0,0,6.4265,6.4266,6.4289,6.4258,6.4256,6.4294,6.4221,6.4211,6.4212,6.4203,6.4178,6.4171,6.4137,6.4169,6.4172,6.4211,6.4126,6.4254,6.4259,6.4265,6.4352,6.4366,6.4378,0,0,0,0,0,6.4265,6.4317,6.4291,6.4292,6.4283,6.4296,6.4295,6.4253,6.4216,6.4239,6.4215,6.4172,6.4206,6.4173,6.4176,6.4215,6.4251,6.4258,6.4264,6.4346,6.4363,6.4377,0,0,0,0,0,0,6.4354,6.4312,6.4282,6.4326,6.4315,6.4281,6.4309,6.4272,6.4273,6.4265,6.4214,6.4209,6.4249,6.4235,6.42,6.4276,6.4221,6.4229,6.4283,6.4299,6.4311,6.4314,6.4127,0,0,0,0,0,6.4379,6.4391,6.4354,6.4396,6.4392,6.4352,6.4356,6.4325,6.4312,6.4308,6.4286,6.4276,6.4284,6.4291,6.4296,6.435,6.4343,6.4378,6.4391,6.4402,6.4409,6.4437,6.4452,6.429,6.4289,6.4289,0,0,6.443,6.4408,6.442,6.4414,6.4402,6.4417,6.4349,6.4368,6.4379,6.4311,6.434,6.4324,6.431,6.4353,6.4371,6.4343,6.4453,6.4411,6.4419,6.442,6.4446,6.4461,6.4475,6.4294,6.4293,6.4292,0,0,6.453,6.4516,6.4549,6.4539,6.4521,6.4494,6.4503,6.4475,6.4461,6.449,6.4439,6.4452,6.4468,6.446,6.4458,6.4558,6.4518,6.4561,6.4628,6.4656,6.4669,6.468,6.4716,6.4729,6.4568,6.4568,6.4569,0,6.4596,6.4617,6.4571,6.4594,6.4593,6.4531,6.4566,6.4558,6.4544,6.4546,6.4514,6.4533,6.4519,6.456,6.4584,6.4585,6.4593,6.4563,6.4671,6.4681,6.4691,6.4725,6.4738,6.4574,6.4573,6.4573,6.4572,0,6.4699,6.4714,6.4743,6.4731,6.4733,6.4762,6.4722,6.473,6.47,6.4677,6.4707,6.4688,6.4689,6.4697,6.4667,6.4735,6.4718,6.468,6.4624,6.4713,6.4743,6.4756,6.4581,6.4579,6.4578,6.4576,0,0,6.4853,6.4816,6.4828,6.4822,6.4799,6.481,6.4837,6.4837,6.4846,6.4839,6.486,6.4875,6.484,6.4838,6.4807,6.4832,6.4913,6.479,6.4789,6.4814,6.4986,6.5015,6.5031,6.4887,6.4889,6.4891,6.4988,0,6.4948,6.499,6.4951,6.5001,6.5015,6.4957,6.498,6.497,6.4949,6.4959,6.4937,6.4948,6.49,6.4899,6.4921,6.4898,6.4947,6.4891,6.4907,6.4908,6.4912,6.5047,6.5077,6.5169,6.4999,6.5001,6.5003,0,6.5064,6.5062,6.5114,6.5089,6.5093,6.5114,6.5112,6.5122,6.5109,6.5093,6.5092,6.5054,6.5079,6.5026,6.506,6.5023,6.5028,6.5018,6.502,6.502,6.4961,6.505,6.5197,6.5211,6.5021,6.502,6.5018,0,6.5172,6.5183,6.5215,6.5212,6.5183,6.52,6.5189,6.5173,6.5176,6.5175,6.5177,6.5179,6.518,6.5183,6.5148,6.5112,6.5188,6.513,6.5175,6.5176,6.5193,6.5193,6.5343,6.5197,6.5197,6.5196,6.5196,0,6.5282,6.5316,6.5263,6.5283,6.532,6.5275,6.5313,6.5296,6.5283,6.5299,6.525,6.5267,6.5219,6.5231,6.5204,6.5237,6.5238,6.5226,6.5219,6.5231,6.5232,6.5233,6.5226,6.52,6.5199,6.5198,6.5198,0,6.5409,6.5375,6.5406,6.5377,6.537,6.5399,6.5374,6.5392,6.5369,6.539,6.5393,6.5357,6.5368,6.5334,6.534,6.5322,6.537,6.5352,6.5374,6.5369,6.5416,6.5412,6.5572,6.5591,6.5432,6.5434,6.5435,0,6.5481,6.5506,6.5479,6.5487,6.5478,6.5491,6.5494,6.5451,6.5457,6.5445,6.5464,6.5472,6.5476,6.5498,6.5472,6.5478,6.5459,6.5515,6.546,6.5471,6.546,6.5459,6.5462,6.5526,6.5528,6.553,6.5531,0,6.5613,6.5596,6.5601,6.5602,6.5607,6.5606,6.5601,6.561,6.5564,6.5573,6.5585,6.5588,6.5594,6.5603,6.5603,6.5592,6.5555,6.5549,6.556,6.5572,6.5584,6.5578,6.5406,6.5545,6.5544,6.5543,6.5542,6.5542,6.5715,6.5734,6.5719,6.5728,6.572,6.5717,6.5732,6.5711,6.572,6.5721,6.5696,6.5713,6.5701,6.5697,6.569,6.5704,6.5678,6.5693,6.5697,6.5702,6.571,6.5582,6.5703,6.5703,6.5703,6.5702,6.5702,0,6.5845,6.5832,6.5841,6.5836,6.5843,6.5807,6.58,6.5809,6.5824,6.5816,6.582,6.5834,6.5843,6.5819,6.5824,6.5839,6.5822,6.5842,6.584,6.5839,6.5732,6.5722,6.5856,6.5856,6.5856,6.5856,6.5856,6.5856,6.5913,6.5944,6.5925,6.5953,6.594,6.5956,6.5955,6.5953,6.5946,6.5963,6.597,6.5954,6.594,6.5944,6.595,6.5943,6.5948,6.5974,6.5961,6.5861,6.5846,6.5832,6.5823,6.5975,6.5975,6.6066,6.6067,6.6068]}]]